Regional Weather Roundup
Issued by NWS

Home | Current Version | Previous Version | Text Only | Print | Product List | Glossary Off
Versions: 1 2 3 4 5 6 7 8 9 10 11 12 13 14 15 16 17 18 19 20 21 22 23 24 25 26 27 28 29 30 31 32 33 34 35 36 37 38 39 40 41 42 43 44 45 46 47 48 49 50

000
ASUS43 KFSD 260502
RWRSD

WEATHER ROUNDUP FOR SOUTH DAKOTA
NATIONAL WEATHER SERVICE SIOUX FALLS SD
1200 AM CDT FRI AUG 26 2016

NOTE: "FAIR" INDICATES FEW OR NO CLOUDS BELOW 12,000 FEET WITH NO
SIGNIFICANT WEATHER AND/OR OBSTRUCTIONS TO VISIBILITY.


SDZ001>005-009-010-012>017-260600-
NORTHWEST AND NORTH CENTRAL SOUTH DAKOTA

CITY           SKY/WX    TMP DP  RH WIND       PRES   REMARKS
BUFFALO          N/A     55  39  54 W3        30.13R
FAITH            N/A     50  45  83 S13       30.19S
MOBRIDGE       FAIR      55  47  74 SE3       30.16R
$$

SDZ012>016-024>037-041>051-057-063-072>074-260600-
SOUTHWEST AND SOUTH CENTRAL SOUTH DAKOTA

CITY           SKY/WX    TMP DP  RH WIND       PRES   REMARKS
RAPID CTY ARPT FAIR      51  45  79 CALM      30.20R
PIERRE         FAIR      52  46  80 CALM      30.18S
CUSTER         FAIR      46  43  89 CALM      30.27R
ELLSWORTH AFB  FAIR     N/A N/A N/A SE6       30.20R
PHILIP         FAIR      52  46  80 CALM      30.19S
PINE RIDGE     FAIR      52  49  89 NE6       30.21S
WINNER         MOCLDY    59  48  67 E6        30.21R
$$

SDZ004>011-016>023-039-040-260600-
NORTHEAST SOUTH DAKOTA

CITY           SKY/WX    TMP DP  RH WIND       PRES   REMARKS
ABERDEEN       FAIR      51  48  89 SW6       30.16R
WATERTOWN      FAIR      55  52  89 S3        30.17R
BROOKINGS      FAIR      54  51  90 SW3       30.18R
$$

SDZ017-020-022-023-036>040-048>070-260600-
SOUTHEAST SOUTH DAKOTA

CITY           SKY/WX    TMP DP  RH WIND       PRES   REMARKS
SIOUX FALLS    FAIR      57  54  89 CALM      30.18S
HURON          FAIR      53  50  89 CALM      30.19R
CHAMBERLAIN    FAIR      59  49  69 CALM      30.20S
MITCHELL       FAIR      56  52  86 W3        30.21R
YANKTON        FAIR      61  52  72 CALM      30.17S
$$

ABBREVIATIONS USED IN REMARKS
   TC - TEMPERATURE IN CELSIUS
  WCI - WIND CHILL INDEX
   HX - HEAT INDEX
  VSB - VISIBILITY





USA.gov is the U.S. government's official web portal to all federal, state and local government web resources and services.